Location: Stuttgart
(48.8069°N, 9.1544°E)
Time: 03:19:48
(UTC+02:00)

ISS - Pass Details

Date: 12 May 2021
Orbit: 417 x 422 km, 51.6° (Epoch: 15 June)

Event Time Altitude Azimuth Distance (km) Brightness Sun altitude
Exits shadow 01:17:11 21° 68° (ENE) 1,017 -1.6 -23.1°
Drops below altitude 10° 01:18:24 10° 69° (ENE) 1,499 -0.7 -23.1°
Sets 01:20:32 0° 71° (ENE) 2,377 0.3 -23.1°
